Regional Weather Roundup
Issued by NWS Wakefield, VA

Home | Current Version | Previous Version | Text Only | Print | Product List | Glossary Off
Versions: 1 2 3 4 5 6 7 8 9 10 11 12 13 14 15 16 17 18 19 20 21 22 23 24 25 26 27 28 29 30 31 32 33 34 35 36 37 38 39 40 41 42 43 44 45 46 47 48 49 50

000
ASUS41 KAKQ 261614
RWRAKQ

REGIONAL WEATHER ROUNDUP
NATIONAL WEATHER SERVICE WAKEFIELD VA
1200 PM EDT SUN APR 26 2015

Note: "fair" indicates few or no clouds below 12,000 feet with no
significant weather and/or obstructions to visibility. * = Denotes
station may not report precipitation (e.g., rain,snow,etc.),
thunder or fog.

VAZ042-051-052>054-056-261700-
NORTHERN VIRGINIA

CITY           SKY/WX    TMP DP  RH WIND       PRES   REMARKS
WASH NATIONAL  MOSUNNY   59  36  42 CALM      29.73S
DULLES         MOSUNNY   56  34  43 N9G18     29.74R
FORT BELVOIR   SUNNY     57  35  43 N5        29.73S
QUANTICO       SUNNY     55  40  56 E7        29.74S
FREDERICKSBRG* FAIR      55  42  61 N3        29.73F
STAFFORD*      SUNNY     54  38  54 CALM      29.77F
WARRENTON      MOSUNNY   57  41  53 N9        29.73F
CULPEPER*      MOSUNNY   57  41  54 N7        29.74F
MANASSAS*      SUNNY     57  39  51 N9G17     29.74R
LEESBURG*      SUNNY     57  36  44 N8        29.75S
WINCHESTER     SUNNY     55  28  35 N6        29.75S
FRONT ROYAL*   FAIR      52  37  58 NE6       29.75F
LURAY*         FAIR      54  43  66 E3        29.75F
$$

VAZ048-049-060>072-079>083-261700-
CENTRAL AND SOUTH CENTRAL VIRGINIA

CITY           SKY/WX    TMP DP  RH WIND       PRES   REMARKS
RICHMOND       PTSUNNY   52  42  69 N6        29.74R
CHESTERFIELD*  CLOUDY    50  36  57 N8        29.75S
PETERSBURG*    CLOUDY    50  43  75 N5        29.74S
HANOVER        PTSUNNY   53  42  66 VRB5      29.75F
TAPPAHANNOCK*  MOSUNNY   53  39  59 N5        29.73S
QUINTON*       CLOUDY    50  42  76 NW5       29.73S
CHARLOTTSVILLE CLOUDY    52  39  61 VRB5      29.74S
GORDONSVILLE*  CLOUDY    52  40  64 NE5       29.73F
ORANGE*        CLOUDY    52  41  66 N8        29.75F
LOUISA*        PTSUNNY   54  43  66 N6        29.72F
BUMPASS*       CLOUDY    50  41  71 N6        29.73F
FARMVILLE*     CLOUDY    50  47  92 NE6       29.73F
CREWE*         CLOUDY    46  43  89 N3        29.73F
FORT PICKETT*  CLOUDY    45  44  93 N7        29.73S
CHASE CITY*    CLOUDY    49  48  94 N6        29.73R
CLARKSVILLE*   CLOUDY    46  43  87 N5        29.73R
SOUTH HILL*    CLOUDY    46  43  88 NE5       29.78R
LAWRENCEVILLE* CLOUDY    47  44  91 N3        29.72S
EMPORIA*       CLOUDY    46  43  87 N7        29.73S
$$

VAZ088>098-261700-
SOUTHEAST VIRGINIA

CITY           SKY/WX    TMP DP  RH WIND       PRES   REMARKS
NORFOLK        CLOUDY    50  41  71 N12       29.70R
VIRGINIA BEACH CLOUDY    52  44  74 N14       29.69R
NORFOLK NAVAL  CLOUDY    53  40  61 N15       29.72R
WEST POINT*    CLOUDY    55  41  59 N5        29.74S
SALUDA*        FAIR      51  42  72 NW5       29.72S
NEWPORT NEWS   CLOUDY    54  42  64 N8        29.72R
LANGLEY AFB    CLOUDY    51  40  67 NE10      29.70S
FORT EUSTIS    CLOUDY    52  40  65 VRB6      29.70R
WILLIAMSBURG*  MOSUNNY   54  50  87 NE3       29.73S
HR EXEC AP*    CLOUDY    50  43  76 N6        29.72R
FRANKLIN*      CLOUDY    48  46  90 N6        29.72S
WAKEFIELD      CLOUDY    49  44  83 N5        29.73R
$$

VAZ020-022-025-037-045-261700-
WEST CENTRAL AND SOUTHWEST VIRGINIA

CITY           SKY/WX    TMP DP  RH WIND       PRES   REMARKS
STAUNTON*      CLOUDY    49  38  66 NE6       29.76S
WAYNESBORO*    CLOUDY    44  39  82 CALM      29.75S
HOT SPRINGS VA FOG       36  36 100 E7        29.69R VSB<1/4
LYNCHBURG      CLOUDY    46  42  86 N6        29.76R
DANVILLE       CLOUDY    50  43  77 NE8       29.74S
SOUTH BOSTON*  CLOUDY    48  44  88 N7        29.74S
MARTINSVILLE   CLOUDY    47  47  99 NE8       29.76F
ROANOKE        CLOUDY    46  42  86 VRB3      29.76S
BLACKSBURG     CLOUDY    42  40  93 E3        29.75S
DUBLIN*        CLOUDY    44  44 100 E3        29.74S
MARION*        DRIZZLE   45  43  93 E3        29.74R
HILLSVILLE*    CLOUDY    43  43 100 CALM      29.71R FOG
RICHLANDS*     CLOUDY    45  28  52 NW7       29.72R
WISE*          FOG       45  45 100 NW9       29.75R VSB<1/4
ABINGDON*      CLOUDY    55  49  79 N14       29.70R
$$

MDZ021>025-VAZ099-100-261700-
SOUTHERN MARYLAND AND THE DELMARVA PENINSULA

CITY           SKY/WX    TMP DP  RH WIND       PRES   REMARKS
PATUXENT RIVER PTSUNNY   53  41  63 NW8       29.72R
BAY BRIDGE APT   N/A    N/A N/A N/A NW8       29.72S
LEONARDTOWN    NOT AVBL
DOVER          SUNNY     58  39  49 VRB5      29.66S
GEORGETOWN     SUNNY     57  38  48 VRB7      29.70R
EASTON         SUNNY     59  41  51 NW8       29.74S
CAMBRIDGE      SUNNY     55  41  58 W3        29.70S
SALISBURY      MOSUNNY   55  38  52 CALM      29.69S
OCEAN CITY     MOSUNNY   55  38  52 NE6       29.70R
WALLOPS ISLAND SUNNY     56  41  57 VRB3      29.70R
ACCOMACK*      CLOUDY    52  21  30 N5        29.71R
$$

NCZ012>017-030>032-261700-
NORTH CENTRAL AND EASTERN NORTH CAROLINA

CITY           SKY/WX    TMP DP  RH WIND       PRES   REMARKS
ROANOKE RAPIDS CLOUDY    48  45  87 N6        29.71S
RALEIGH        CLOUDY    48  46  93 N7        29.73R
ELIZABETH CITY CLOUDY    50  46  86 N14       29.69R
AHOSKIE*       CLOUDY    49  45  86 N9        29.72R
EDENTON*       CLOUDY    50  46  87 N8G16     29.69R
CURRITUCK*     CLOUDY    50  46  87 N8        29.69R
KILL DEVIL HLS CLOUDY    50  49  99 N13G20    29.64S
MANTEO         CLOUDY    50  49  95 N15       29.66R
CAPE HATTERAS  LGT RAIN  52  52 100 N10G21    29.62R
TARBORO*       CLOUDY    51  47  87 N3        29.72R
GOLDSBORO      CLOUDY    51  49  93 NE8       29.66R
WASHINGTON     CLOUDY    50  47  91 N10       29.68S
GREENVILLE     CLOUDY    50  48  93 N8        29.72S
NEW BERN       CLOUDY    53  48  83 N12       29.68S
WILMINGTON     CLOUDY    58  55  90 N8        29.65R
$$

VAZ048-261700-
ELSEWHERE

CITY           SKY/WX    TMP DP  RH WIND       PRES   REMARKS
HARRISBURG PA  MOSUNNY   57  30  35 NW12      29.72F
BALTIMORE      MOSUNNY   59  33  37 NE10G17   29.71S
ANNAPOLIS      SUNNY     56  32  40 N10       29.72R
ANDREWS AFB    SUNNY     56  37  47 N7        29.71S
PHILADELPHIA   MOSUNNY   59  33  37 NE10      29.71F
HENDERSON NC   CLOUDY    47  43  87 NE7       29.72S
GREENSBORO     CLOUDY    47  44  90 NE7       29.72S
ROCKY MOUNT    CLOUDY    51  48  89 N9        29.71R
$$

VAZ100-261700-
MARINE

STATION/POSITION TIME  TEMP    WIND        PRES    WAVE   SWELL
                       AIR SEA DIR/SP/G            HT/PER HT/PER
                 (UTC) (F)     (DEG/KT/KT) (MB)    (FT/S) (FT/S)
BRANDYWINE LGT   1500   50 52   30/  8/  9 1005.6R
CAPE MAY NJ      1500   54 55   50/  8/ 11 1004.9R
LEWES DE         1500   49 51   20/  5/  6 1005.4R
15NM E FENWICK I 1550   47 47              1005.1R   1/12
OCEAN-CITY-INLET 1500   49 50   20/  5/  6 1005.0R
WACHAPREAGUE VA  1500   50 53   10/  5/  8 1005.5R
THOMAS POINT MD  1600   51 51  360/  5/  5 1007.3R
GOOSES REEF MD   1600   50 53  360/ 10/ 12   N/A     1/ 2
COVE POINT MD    1500   47     350/  9/ 11 1006.8R
SOLOMONS ISLAND  1500      55                N/A
BISHOPS HEAD MD  1500   49 53  290/ 12/ 13 1005.5R
PINEY POINT MD   1500          320/  9/ 10   N/A
CAMBRIDGE MD     1500   51 57  320/  4/  6 1005.6R
LEWISETTA VA     1500   50 55              1006.1R
RAPPAHANNOCK LGT 1500           10/ 12/ 13 1006.2R
YORK RVR RNG VA  1500   49      20/ 12/ 14 1005.1R
YORKTOWN VA      1500   49 58   20/  9/ 11 1005.5R
JAMESTOWN VA     1600   50 63   30/  6/  8 1005.6R
DOMINION TERM VA 1500   51      50/ 11/ 19 1005.6R
KIPTOPEKE VA     1500      61   30/  6/ 11   N/A
CHES BAY BRIDGE  1506   48 56   20/ 12/ 15 1005.0R
CAPE HENRY VA    1500   48      10/ 16/ 18 1003.9R
CHESAPEAKE LGHT  1500   47      20/ 20/ 21 1005.3R
WILLOUBY STN VA  1500   49      20/ 15/ 16 1006.1R
S CRANEY ISL VA  1500           30/ 14/ 17 1005.3R
CAPE HENRY BUOY  1528      51                N/A     4/ 5
1ST LANDING BUOY 1500                      1005.0R   2/ 3
OFFSHORE WE BUOY 1511      50                N/A     5/ 6   2/ 8
64NM E OF VA BCH 1550   53 59   10/ 19/ 23 1002.7R   6/ 6
DUCK PIER NC     1500   49 54   10/ 16/ 20 1002.7R
44056 DUCK FRF   1511      54                N/A     5/ 6
OREGON INLET NC  1500   51 54  350/ 15/ 19 1003.1R
HATTERAS NC      1506   56 65  350/ 19/ 23 1002.6R
DIAMOND SHLS NC  1550   58 72  350/ 21/ 25 1001.8R   5/ 8   2/15
CAPE LOOKOUT NC  1500   55     350/ 16/ 19 1002.9R
$$


USA.gov is the U.S. government's official web portal to all federal, state and local government web resources and services.